• în România
  • Lista ţărilor
  • Pe 7 zile
  • Temperatura apei
  • Hartă satelitară
  • Meteo pe hartă
  • Widget-uri
  • user-avatar
    Intrare

    Meteo pe oră la Perth

    Astăzi, 21 Ianuarie, Duminică

    Timp Temperatura Precipitaţii Vânt Presiune Umiditate
    00:00 +28°C° 0 mm 3 m/s 754 mmHg 53%
    01:00 +27°C° 0 mm 3 m/s 754 mmHg 56%
    02:00 +27°C° 0 mm 3 m/s 754 mmHg 61%
    03:00 +26°C° 0 mm 3 m/s 754 mmHg 62%
    04:00 +26°C° 0 mm 3 m/s 754 mmHg 64%
    05:00 +26°C° 0 mm 3 m/s 754 mmHg 65%
    06:00 +27°C° 0 mm 3 m/s 754 mmHg 62%
    07:00 +28°C° 0 mm 3 m/s 755 mmHg 58%
    08:00 +30°C° 0 mm 3 m/s 755 mmHg 55%
    09:00 +33°C° 0 mm 3 m/s 755 mmHg 50%
    10:00 +35°C° 0 mm 3 m/s 755 mmHg 44%
    11:00 +38°C° 0 mm 3 m/s 755 mmHg 39%
    12:00 +38°C° 0 mm 4 m/s 754 mmHg 38%
    13:00 +40°C° 0 mm 5 m/s 754 mmHg 37%
    14:00 +40°C° 0 mm 6 m/s 754 mmHg 35%
    15:00 +39°C° 0 mm 6 m/s 754 mmHg 37%
    16:00 +38°C° 0 mm 6 m/s 754 mmHg 39%
    17:00 +36°C° 0 mm 7 m/s 754 mmHg 41%
    18:00 +35°C° 0 mm 6 m/s 754 mmHg 45%
    19:00 +33°C° 0 mm 6 m/s 754 mmHg 48%
    20:00 +32°C° 0 mm 6 m/s 754 mmHg 52%
    21:00 +30°C° 0 mm 6 m/s 755 mmHg 54%
    22:00 +29°C° 0 mm 6 m/s 755 mmHg 55%
    23:00 +28°C° 0 mm 6 m/s 756 mmHg 57%

    Mâine, 22 Ianuarie, Luni

    Timp Temperatura Precipitaţii Vânt Presiune Umiditate
    00:00 +27°C° 0 mm 6 m/s 756 mmHg 59%
    01:00 +26°C° 0 mm 6 m/s 756 mmHg 61%
    02:00 +24°C° 0 mm 6 m/s 756 mmHg 63%
    03:00 +24°C° 0 mm 6 m/s 756 mmHg 65%
    04:00 +23°C° 0 mm 5 m/s 756 mmHg 67%
    05:00 +23°C° 0 mm 5 m/s 756 mmHg 68%
    06:00 +23°C° 0 mm 5 m/s 756 mmHg 66%
    07:00 +25°C° 0 mm 5 m/s 757 mmHg 63%
    08:00 +26°C° 0 mm 5 m/s 757 mmHg 60%
    09:00 +28°C° 0 mm 5 m/s 757 mmHg 55%
    10:00 +30°C° 0 mm 5 m/s 756 mmHg 50%
    11:00 +33°C° 0 mm 5 m/s 756 mmHg 45%
    12:00 +34°C° 0 mm 5 m/s 755 mmHg 43%
    13:00 +36°C° 0 mm 5 m/s 755 mmHg 41%
    14:00 +37°C° 0 mm 5 m/s 754 mmHg 38%
    15:00 +38°C° 0 mm 6 m/s 754 mmHg 38%
    16:00 +38°C° 0 mm 6 m/s 753 mmHg 38%
    17:00 +38°C° 0 mm 6 m/s 753 mmHg 38%
    18:00 +36°C° 0 mm 6 m/s 753 mmHg 41%
    19:00 +34°C° 0 mm 6 m/s 753 mmHg 44%
    20:00 +33°C° 0 mm 6 m/s 754 mmHg 47%
    21:00 +32°C° 0 mm 6 m/s 754 mmHg 48%
    22:00 +30°C° 0 mm 6 m/s 754 mmHg 50%
    23:00 +29°C° 0 mm 6 m/s 755 mmHg 52%

    Poimâine, 23 Ianuarie, Marţi

    Timp Temperatura Precipitaţii Vânt Presiune Umiditate
    00:00 +28°C° 0 mm 6 m/s 754 mmHg 55%
    01:00 +27°C° 0 mm 6 m/s 754 mmHg 58%
    02:00 +26°C° 0 mm 6 m/s 754 mmHg 62%
    03:00 +24°C° 0 mm 6 m/s 754 mmHg 64%
    04:00 +24°C° 0 mm 6 m/s 754 mmHg 66%
    05:00 +25°C° 0 mm 5 m/s 754 mmHg 67%
    06:00 +25°C° 0 mm 5 m/s 755 mmHg 65%
    07:00 +26°C° 0 mm 5 m/s 755 mmHg 63%
    08:00 +27°C° 0 mm 5 m/s 755 mmHg 61%
    09:00 +29°C° 0 mm 5 m/s 755 mmHg 56%
    10:00 +33°C° 0 mm 4 m/s 755 mmHg 51%
    11:00 +35°C° 0 mm 4 m/s 754 mmHg 46%
    12:00 +35°C° 0 mm 5 m/s 754 mmHg 45%
    13:00 +36°C° 0 mm 5 m/s 753 mmHg 44%
    14:00 +38°C° 0 mm 6 m/s 753 mmHg 42%
    15:00 +38°C° 0 mm 6 m/s 752 mmHg 42%
    16:00 +36°C° 0 mm 7 m/s 752 mmHg 42%
    17:00 +36°C° 0 mm 7 m/s 752 mmHg 42%
    18:00 +35°C° 0 mm 7 m/s 752 mmHg 45%
    19:00 +33°C° 0 mm 7 m/s 753 mmHg 47%
    20:00 +32°C° 0 mm 6 m/s 753 mmHg 50%
    21:00 +30°C° 0 mm 6 m/s 753 mmHg 51%
    22:00 +29°C° 0 mm 6 m/s 754 mmHg 53%
    23:00 +28°C° 0 mm 6 m/s 754 mmHg 54%

    24 Ianuarie, Miercuri

    Timp Temperatura Precipitaţii Vânt Presiune Umiditate
    00:00 +27°C° 0 mm 6 m/s 754 mmHg 56%
    01:00 +26°C° 0 mm 6 m/s 754 mmHg 58%
    02:00 +24°C° 0 mm 6 m/s 754 mmHg 60%
    03:00 +23°C° 0 mm 6 m/s 754 mmHg 64%
    04:00 +23°C° 0 mm 5 m/s 754 mmHg 67%
    05:00 +22°C° 0 mm 5 m/s 754 mmHg 70%
    06:00 +23°C° 0 mm 5 m/s 754 mmHg 68%
    07:00 +25°C° 0 mm 5 m/s 754 mmHg 65%
    08:00 +26°C° 0 mm 4 m/s 755 mmHg 63%
    09:00 +28°C° 0 mm 4 m/s 754 mmHg 57%
    10:00 +30°C° 0 mm 4 m/s 754 mmHg 51%
    11:00 +33°C° 0 mm 4 m/s 754 mmHg 46%
    12:00 +34°C° 0 mm 5 m/s 753 mmHg 42%
    13:00 +35°C° 0 mm 5 m/s 752 mmHg 39%
    14:00 +36°C° 0 mm 6 m/s 752 mmHg 36%
    15:00 +35°C° 0 mm 6 m/s 751 mmHg 36%
    16:00 +35°C° 0 mm 6 m/s 751 mmHg 37%
    17:00 +34°C° 0 mm 7 m/s 751 mmHg 37%
    18:00 +32°C° 0 mm 7 m/s 752 mmHg 41%
    19:00 +30°C° 0 mm 6 m/s 752 mmHg 45%
    20:00 +28°C° 0 mm 6 m/s 752 mmHg 49%
    21:00 +27°C° 0 mm 6 m/s 753 mmHg 51%
    22:00 +26°C° 0 mm 5 m/s 753 mmHg 53%
    23:00 +26°C° 0 mm 5 m/s 753 mmHg 55%

    25 Ianuarie, Joi

    Timp Temperatura Precipitaţii Vânt Presiune Umiditate
    00:00 +25°C° 0 mm 5 m/s 753 mmHg 59%
    01:00 +25°C° 0 mm 4 m/s 752 mmHg 62%
    02:00 +25°C° 0 mm 4 m/s 752 mmHg 65%
    03:00 +23°C° 0 mm 4 m/s 752 mmHg 68%
    04:00 +22°C° 0 mm 4 m/s 752 mmHg 71%
    05:00 +22°C° 0 mm 4 m/s 753 mmHg 74%
    06:00 +23°C° 0 mm 4 m/s 753 mmHg 70%
    07:00 +24°C° 0 mm 3 m/s 753 mmHg 66%
    08:00 +25°C° 0 mm 3 m/s 754 mmHg 62%
    09:00 +27°C° 0 mm 4 m/s 754 mmHg 54%
    10:00 +30°C° 0 mm 4 m/s 753 mmHg 45%
    11:00 +33°C° 0 mm 4 m/s 753 mmHg 37%
    12:00 +33°C° 0 mm 4 m/s 753 mmHg 35%
    13:00 +34°C° 0 mm 5 m/s 752 mmHg 34%
    14:00 +35°C° 0 mm 6 m/s 752 mmHg 32%
    15:00 +34°C° 0 mm 6 m/s 751 mmHg 35%
    16:00 +33°C° 0 mm 6 m/s 751 mmHg 37%
    17:00 +32°C° 0 mm 7 m/s 751 mmHg 39%
    18:00 +29°C° 0 mm 6 m/s 752 mmHg 45%
    19:00 +27°C° 0 mm 6 m/s 752 mmHg 51%
    20:00 +24°C° 0 mm 6 m/s 753 mmHg 56%
    21:00 +23°C° 0 mm 5 m/s 753 mmHg 59%
    22:00 +23°C° 0 mm 5 m/s 753 mmHg 61%
    23:00 +22°C° 0 mm 5 m/s 753 mmHg 63%

    26 Ianuarie, Vineri

    Timp Temperatura Precipitaţii Vânt Presiune Umiditate
    00:00 +22°C° 0 mm 5 m/s 753 mmHg 62%
    01:00 +22°C° 0 mm 4 m/s 753 mmHg 62%
    02:00 +21°C° 0 mm 4 m/s 753 mmHg 62%
    03:00 +21°C° 0 mm 4 m/s 753 mmHg 63%
    04:00 +21°C° 0 mm 3 m/s 753 mmHg 63%
    05:00 +20°C° 0 mm 3 m/s 753 mmHg 64%
    06:00 +22°C° 0 mm 3 m/s 753 mmHg 60%
    07:00 +25°C° 0 mm 3 m/s 753 mmHg 56%
    08:00 +26°C° 0 mm 3 m/s 753 mmHg 52%
    09:00 +28°C° 0 mm 3 m/s 753 mmHg 46%
    10:00 +30°C° 0 mm 3 m/s 753 mmHg 41%
    11:00 +33°C° 0 mm 4 m/s 752 mmHg 35%
    12:00 +34°C° 0 mm 4 m/s 752 mmHg 34%
    13:00 +34°C° 0 mm 5 m/s 752 mmHg 33%
    14:00 +34°C° 0 mm 5 m/s 751 mmHg 32%
    15:00 +33°C° 0 mm 6 m/s 751 mmHg 36%
    16:00 +32°C° 0 mm 6 m/s 751 mmHg 40%
    17:00 +30°C° 0 mm 6 m/s 751 mmHg 44%
    18:00 +28°C° 0 mm 5 m/s 752 mmHg 52%
    19:00 +26°C° 0 mm 5 m/s 752 mmHg 61%
    20:00 +23°C° 0 mm 5 m/s 752 mmHg 69%
    21:00 +22°C° 0 mm 5 m/s 753 mmHg 71%
    22:00 +21°C° 0 mm 4 m/s 753 mmHg 73%
    23:00 +20°C° 0 mm 4 m/s 753 mmHg 75%
    Arată mai mult